Regional Weather Roundup
Issued by NWS

Home | Current Version | Previous Version | Text Only | Print | Product List | Glossary Off
Versions: 1 2 3 4 5 6 7 8 9 10 11 12 13 14 15 16 17 18 19 20 21 22 23 24 25 26 27 28 29 30 31 32 33 34 35 36 37 38 39 40 41 42 43 44 45 46 47 48 49 50

000
ASUS43 KMKX 252100
RWRWI

WISCONSIN REGIONAL WEATHER ROUNDUP
NATIONAL WEATHER SERVICE MILWAUKEE/SULLIVAN WI
300 PM CST SAT FEB 25 2017

NOTE: "FAIR" INDICATES FEW OR NO CLOUDS BELOW 12,000 FEET WITH NO
SIGNIFICANT WEATHER AND/OR OBSTRUCTIONS TO VISIBILITY.

WIZ001-002-006>008-014>016-023>028-252200-
NORTHWEST WISCONSIN

CITY           SKY/WX    TMP DP  RH WIND       PRES   REMARKS
SUPERIOR ARPT  MOSUNNY   28  12  50 NW12      29.83F WCI  18
ASHLAND        MOSUNNY   26   9  48 W14G20    29.81S WCI  14
HAYWARD        MOSUNNY   28   6  39 NW9G16    29.80F WCI  19
SIREN          SUNNY     30   9  42 NW12G18   29.85F WCI  20
CUMBERLAND     MOSUNNY   28  10  47 W15G24    29.84S WCI  17
RICE LAKE      MOSUNNY   29   9  43 CALM      29.86F
CHETEK         MOSUNNY   28   9  44 NW7       29.86S WCI  21
LADYSMITH      SUNNY     27   7  44 NW17G23   29.84R WCI  14
EAU CLAIRE     NOT AVBL
MENOMONIE      SUNNY     29   8  42 W13       29.89S WCI  18
NEW RICHMOND   SUNNY     32   9  39 W15       29.87F WCI  21
OSCEOLA        MOSUNNY   32  13  45 W12       29.90F WCI  23
$$

WIZ003>005-009-010-017-018-252200-
NORTH CENTRAL WISCONSIN

CITY           SKY/WX    TMP DP  RH WIND       PRES   REMARKS
MANITOWISH WTR CLOUDY    19   9  65 NW12G20   29.73S WCI   7
ARBOR VITAE    SUNNY     22  11  64 W9          N/A  WCI  11
WOODRUFF       SUNNY     22  11  64 W9          N/A  WCI  11
RHINELANDER    MOSUNNY   21   8  57 W13       29.75R WCI   9
EAGLE RIVER    FLURRIES  17   8  68 W13       29.73R WCI   4
LAND O LAKES   LGT SNOW  19  11  73 W9G18     29.73R WCI   7
PHILLIPS       SUNNY     24   6  45 NW14G24   29.76S WCI  12
TOMAHAWK       SUNNY     22   8  55 W13       29.77S WCI   9
MEDFORD        SUNNY     22   5  47 W15       29.79S WCI   9
MERRILL        NOT AVBL
$$

WIZ029-030-035-036-043>047-252200-
CENTRAL WISCONSIN

CITY           SKY/WX    TMP DP  RH WIND       PRES   REMARKS
WAUSAU         SUNNY     21   7  54 W17       29.80R WCI   7
MOSINEE        MOSUNNY   21   9  58 W18       29.82R WCI   6
MARSHFIELD     SUNNY     21   6  52 W14       29.82R WCI   8
STEVENS POINT  SUNNY     19   7  58 W13       29.84R WCI   6
WAUPACA        PTSUNNY   24  10  53 W16       29.85R WCI  11
WAUTOMA        PTSUNNY   22  11  62 W16G25    29.87R WCI   8
WISC RAPIDS    SUNNY     23   6  48 NW14G24   29.86R WCI  11
CAMP DOUGLAS   NOT AVBL
$$

WIZ011>013-019>022-031-037>040-048>050-252200-
NORTHEAST WISCONSIN

CITY           SKY/WX    TMP DP  RH WIND       PRES   REMARKS
ANTIGO         CLOUDY    18   9  67 W17G23    29.76R WCI   3
SHAWANO        CLOUDY    25  12  58 CALM      29.80R
OCONTO         CLOUDY    24  12  61 W17G26    29.77R WCI  10
STURGEON BAY   CLOUDY    25  15  66 W14G22    29.76R WCI  13
GREEN BAY      MOSUNNY   24  14  65 W20G26    29.81R WCI  10
MANITOWOC      NOT AVBL
APPLETON       PTSUNNY   21  10  63 W20       29.81R WCI   6
CLINTONVILLE   CLOUDY    23  10  58 W18G24    29.82R WCI   9
OSHKOSH        MOSUNNY   22  11  62 W15       29.84R WCI   9
$$

WIZ032>034-041-042-053>061-252200-
SOUTHWEST WISCONSIN

CITY           SKY/WX    TMP DP  RH WIND       PRES   REMARKS
LA CROSSE      SUNNY     28  10  46 NW8       29.95R WCI  20
SPARTA         SUNNY     26  10  50 NW12G17   29.92R WCI  16
VIROQUA        SUNNY     24  10  56 W12       29.90R WCI  13
BOSCOBEL       SUNNY     27  10  49 W13       29.96R WCI  16
PRAIRIE DU CHI SUNNY     26   9  48 W12       29.97S WCI  16
PLATTEVILLE    SUNNY     24  16  71 W6        29.94R WCI  17
$$

WIZ056-057-062-063-064-067-068-252200-
SOUTH CENTRAL WISCONSIN

CITY           SKY/WX    TMP DP  RH WIND       PRES   REMARKS
REEDSBURG      SUNNY     24   8  51 NW10G18   29.89S WCI  13
BARABOO/DELLS  MOSUNNY   23  10  57 W12       29.88R WCI  12
LONE ROCK      NOT AVBL
MINERAL POINT  SUNNY     27  16  63 W3        29.91R
MADISON        MOSUNNY   24  13  62 NW15G23   29.89R WCI  11
MIDDLETON      MOSUNNY   25  16  67 NW7       29.89R WCI  18
WATERTOWN      CLOUDY    21  13  72 W15       29.88R WCI   7
MONROE         PTSUNNY   27  16  63 W14G22    29.90R WCI  15
JANESVILLE     PTSUNNY   27  16  63 W16G23    29.90R WCI  14
$$

WIZ051-052-058>065-066-070>072-252200-
SOUTHEAST WISCONSIN

CITY           SKY/WX    TMP DP  RH WIND       PRES   REMARKS
MILWAUKEE      FLURRIES  22   9  57 W16G25    29.88R WCI   8
WAUKESHA       CLOUDY    18  10  73 W20G25    29.88R WCI   1
MILWAUKEE/TIMM CLOUDY    19   9  63 W17G26    29.88R WCI   4
RACINE         CLOUDY    21   9  59 NW16G23   29.90R WCI   7
KENOSHA        CLOUDY    23  12  62 W14       29.89R WCI  11
FOND DU LAC    PTSUNNY   22  10  60 W16G26    29.85R WCI   8
SHEBOYGAN      CLOUDY    22  12  65 W14G23    29.83R WCI   9
WEST BEND      FLURRIES  21  16  79 W9        29.85R WCI  11
JUNEAU         CLOUDY    20  13  74 W6        29.87R WCI  12
$$

LSZ147-162-252200-
LAKE SUPERIOR

STATION/POSITION TIME  TEMP    WIND        PRES    WAVE
                       AIR SEA DIR/SP/G            HT/PER
                 (UTC) (F)     (DEG/KT/KT) (MB)    (FT/S)
DEVILS ISLAND    2000   24     280/ 18/ 21 1009.4F
PORT WING        2030   25     250/ 10/ 16 1010.2S
SAXON HARBOR     2040   26     300/ 12/ 16 1009.5R
$$

LMZ867-665-643>646-252200-
LAKE MICHIGAN

STATION/POSITION TIME  TEMP    WIND        PRES    WAVE
                       AIR SEA DIR/SP/G            HT/PER
                 (UTC) (F)     (DEG/KT/KT) (MB)    (FT/S)
CHAMBERS ISLAND  2040   28      CALM  /  2 1006.8R
NORTHPORT PIER   2040   26     300/  1/  2 1006.4R
SISTER BAY       1950   30        CALM       N/A
KEWAUNEE LAKESHO 2030   24     290/ 14/ 21 1007.6R
SHEBOYGAN LAKESH 2000   21     290/ 17/ 22 1010.2R
PORT WASHINGTON  2030   22     280/  9/ 18 1011.9R
MILWAUKEE LAKESH 2030   20     280/ 17/ 19   N/A
KENOSHA   LAKESH 2000   20     300/ 18/ 23 1011.9
$$

TC  - TEMPERATURE IN CELSIUS
VSB - VISIBILITY IN STATUTE MILES
WCI - WIND CHILL INDEX
HX  - HEAT INDEX





USA.gov is the U.S. government's official web portal to all federal, state and local government web resources and services.